SCP
0 0 0 0 0 0 0 0 0 0 0 0 0 0 0 0 0 0 0 0 0 0 0 0 0 0 0 0 0 0 0 0 0 0 0 0 0 0 0 0 0 0 0
0 0 0 0 0 0 0 0 0 0 0 0 0 0 0 0 0 0 0 0 0 0 0 0 0 0 0 0 0 0 0 0 0 -0 -0 -0 0 0 0 0 0 0 0
0 0 0 0 0 0 0 0 0 0 0 0 0 0 0 0 0 0 0 0 0 0 0 0 0 0 0 0 0 0 0 0 0 0 -0 -0 0 0 0 0 0 0 0
0 0 0 0 0 0 0 0 0 0 0 0 0 0 0 0 0 0 0 0 0 0 0 0 0 0 0 0 0 0 0 0 0 0 0 0 0 0 0 0 0 0 0
0 0 0 0 0 0 0 0 0 0 0 0 0 0 0 0 0 0 0 0 0 0 0 0 0 0 0 0 0 0 0 0 0 0 0 0 0 0 0 0 0 0 0
0 0 0 0 0 0 0 0 0 0 0 0 0 0 0 0 0 0 0 0 0 0 0 0 0 0 0 0 0 0 0 0 0 0 0 0 0 0 0 0 0 0 0
0 0 0 0 0 0 0 0 0 0 0 0 0 0 0 0 0 0 0 0 0 0 0 0 0 0 0 0 0 0 0 0 0 0 0 0 0 0 0 0 0 0 0
0 0 0 0 0 0 0 0 0 0 0 0 0 0 0 0 0 0 0 0 0 0 0 0 0 0 0 0 0 0 0 0 0 0 0 -0 0 -0 0 0 0 0 0
0 0 0 0 0 0 0 0 0 0 0 0 0 0 0 0 0 0 0 0 0 0 0 0 0 0 0 0 0 0 0 0 0 0 0 -0 -0 0 0 -0 0 0 0
0 0 0 0 0 0 0 0 0 0 0 0 0 0 0 0 0 0 0 0 0 0 0 0 0 0 0 0 0 0 0 0 0 0 0 0 -0 0 0 0 0 0 0
0 0 0 0 0 0 0 0 0 0 0 0 0 0 0 0 0 0 0 0 0 0 0 0 0 0 0 0 0 0 0 0 0 0 0 0 -0 -0 0 0 0 0 0
0 0 0 0 0 0 0 0 0 0 0 0 0 0 0 0 0 0 0 0 0 0 0 0 0 0 0 0 0 0 0 0 0 0 0 0 -0 0 0 0 0 0 0
0 0 0 0 0 0 0 0 0 0 0 0 0 0 0 0 0 0 0 0 0 0 0 0 0 0 0 0 0 0 0 0 0 0 0 0 -0 0 0 0 0 0 0
0 0 0 0 0 0 0 0 0 0 0 0 0 0 0 0 0 0 0 0 0 0 0 0 0 0 0 0 0 0 0 0 0 0 0 0 -0 0 -0 0 0 0 0
0 0 0 0 0 0 0 0 0 0 0 0 0 0 0 0 0 0 0 0 0 0 0 0 0 0 0 0 0 0 0 0 0 0 0 0 0 -0 0 0 0 0 0
0 0 0 0 0 0 0 0 0 0 0 0 0 0 0 0 0 0 0 0 0 0 0 0 0 0 0 0 0 0 0 0 0 0 0 0 0 -0 -0 -0 -0 -0 0
0 0 0 0 0 0 0 0 0 0 0 0 0 0 0 0 0 0 0 0 0 0 0 0 0 0 0 0 0 0 0 0 0 0 0 0 0 0 0 0 -0 -0 -0
0 0 0 0 0 0 0 0 0 0 0 0 0 0 0 0 0 0 0 0 0 0 0 0 0 0 0 0 0 0 0 0 0 0 0 0 0 0 -0 0 0 -0 -0
0 0 0 0 0 0 0 0 0 0 0 0 0 0 0 0 0 0 0 0 0 0 0 0 0 0 0 0 0 0 0 0 0 0 0 0 0 0 -0 -0 -0 0 0
0 0 0 0 0 0 0 0 0 0 0 0 0 0 0 0 0 0 0 0 0 0 0 0 0 0 0 0 0 0 0 0 0 0 0 0 0 0 0 0 -0 -0 -0
0 0 0 0 0 0 0 0 0 0 0 0 0 0 0 0 0 0 0 0 0 0 0 0 0 0 0 0 -0 0 0 0 0 0 0 0 0 0 0 0 -0 0 0
0 0 0 0 0 0 0 0 0 0 0 0 0 0 0 0 0 0 0 0 0 0 0 0 0 0 0 0 0 0 0 0 0 0 0 0 0 -0 -0 -0 0 0 0
0 0 0 0 0 0 0 0 0 0 0 0 0 0 0 0 0 0 0 0 0 0 0 0 0 0 0 0 0 0 0 0 0 0 0 0 0 0 0 -0 -0 0 0
0 0 0 0 0 0 0 0 0 0 0 0 0 0 0 0 0 0 0 0 0 0 0 0 0 0 0 0 0 0 0 0 0 0 0 0 0 -0 -0 -0 -0 -0 0
0 0 0 0 0 0 0 0 0 0 0 0 0 0 0 0 0 0 0 0 0 0 0 0 0 0 0 0 0 0 0 0 0 0 0 0 0 0 -0 -0 -0 -0 0
0 0 0 0 0 0 0 0 0 0 0 0 0 0 0 0 0 0 0 0 0 0 0 0 0 0 0 0 0 0 0 0 0 0 0 0 0 0 -0 0 0 0 0
Wind_Speed_500mb
44 35 25 19 12 4 7 6 17 25 23 22 17 15 16 18 19 25 37 44 48 53 48 43 45 42 34 37 40 40 49 47 49 56 60 45 31 33 42 50 50 54 49
51 44 32 23 10 6 7 12 18 27 25 18 21 16 17 13 14 30 27 36 41 40 46 39 38 40 40 37 41 44 43 44 44 53 38 37 33 9 14 16 35 34 44
51 48 32 25 19 8 4 9 19 25 25 19 14 14 7 11 15 21 35 38 37 34 47 39 35 39 38 39 39 40 41 40 44 48 31 20 18 69 18 17 23 17 28
47 45 36 29 19 11 7 5 18 16 20 19 12 18 18 17 26 23 31 39 37 44 35 42 41 41 38 44 41 39 36 35 41 44 42 34 27 19 36 32 34 26 17
52 42 36 28 20 16 8 4 15 14 18 18 20 12 16 17 22 26 30 32 41 37 35 40 38 39 42 40 35 37 40 35 37 34 39 42 35 26 19 43 53 34 30
48 45 40 28 20 15 12 6 6 13 12 11 11 22 20 20 25 26 27 28 30 34 34 38 37 38 45 46 42 34 36 39 34 31 31 33 37 40 34 38 40 34 24
53 49 38 29 24 18 10 6 9 9 11 5 16 17 17 19 23 26 26 28 28 31 39 37 40 40 39 43 42 34 36 36 37 31 30 31 26 34 37 34 40 40 36
60 46 36 33 25 19 11 7 12 10 7 4 6 14 21 19 18 26 31 26 33 29 34 38 37 41 40 43 39 36 37 35 27 32 31 29 25 29 29 34 29 33 18
56 42 37 30 24 19 14 15 13 12 7 10 8 13 18 22 24 27 30 34 32 31 31 39 40 38 41 49 40 33 37 37 32 28 28 32 29 26 20 23 15 15 14
53 43 35 28 22 21 19 16 14 12 9 7 8 9 16 19 22 24 26 30 31 37 39 37 42 36 39 46 47 33 36 37 34 27 29 34 30 30 31 16 10 8 8
44 38 35 28 22 20 18 16 13 11 4 3 7 10 10 16 17 20 25 26 29 33 39 36 42 39 42 45 47 33 33 34 36 31 28 33 35 33 31 22 10 9 6
41 37 33 30 24 21 19 18 15 10 5 4 7 11 13 12 14 18 22 24 30 31 34 36 36 42 47 41 44 42 36 32 36 34 30 35 37 35 30 27 22 13 12
40 38 34 28 27 22 19 17 15 13 8 4 9 10 13 14 12 15 23 24 27 28 30 31 36 35 46 46 40 37 32 30 32 34 28 33 36 40 37 29 29 13 14
40 38 33 30 24 22 22 19 16 12 9 2 5 7 9 11 15 17 23 23 25 26 29 32 36 32 43 58 44 38 33 36 32 32 28 30 33 40 43 34 32 17 6
40 37 32 29 28 24 21 19 16 14 10 4 4 5 7 11 14 20 18 22 24 28 28 29 32 40 46 56 47 36 33 30 34 32 27 25 30 29 39 36 34 24 6
38 34 31 29 27 24 21 19 18 13 7 6 3 3 10 5 15 15 17 22 29 32 29 25 28 39 51 57 44 35 32 31 33 33 28 24 26 26 27 36 31 27 16
37 35 30 27 26 23 21 22 19 17 8 1 1 2 4 5 15 15 20 27 30 31 31 31 29 34 43 57 42 37 35 37 31 33 27 26 24 17 22 26 28 27 19
36 33 28 27 24 22 20 20 20 16 12 3 3 6 9 9 12 12 20 24 27 29 32 29 28 29 33 46 52 36 37 40 32 34 35 19 21 18 17 19 23 20 21
34 32 28 28 26 22 20 19 18 14 11 8 6 5 10 12 12 15 22 29 29 30 30 26 23 28 36 45 50 35 38 38 34 32 37 31 22 21 15 13 13 21 20
37 34 32 30 25 22 20 19 16 14 12 9 11 11 10 14 14 17 26 29 32 31 31 25 23 32 33 40 47 41 25 34 28 28 31 33 22 16 13 11 11 8 14
38 36 33 29 26 20 19 16 13 14 13 12 15 13 14 14 13 25 24 33 31 30 25 22 23 27 34 42 45 38 27 28 35 35 32 34 30 18 11 10 9 10 8
39 35 33 30 24 19 17 15 13 9 10 17 15 13 12 13 17 21 22 30 27 33 27 22 21 24 33 38 40 32 29 31 29 30 30 32 33 30 20 15 9 6 9
37 33 32 31 24 19 12 13 11 13 8 17 12 13 15 15 12 17 17 21 21 21 28 22 29 29 25 27 34 28 27 28 25 25 27 20 25 32 31 20 6 10 9
34 32 33 28 26 18 14 9 4 6 7 12 7 10 9 11 13 9 13 18 22 22 23 25 25 26 28 30 39 28 25 21 16 14 20 24 25 19 34 30 15 5 6
31 30 28 32 25 13 20 14 4 3 6 7 4 3 6 8 6 6 4 15 16 20 22 22 24 28 28 32 32 32 31 26 22 19 19 21 23 22 25 34 26 17 11
29 26 23 26 21 16 19 11 5 2 5 3 2 4 8 10 11 11 14 16 15 25 21 22 20 22 26 28 27 30 26 19 17 26 23 25 21 20 25 28 30 24 17
Wind_Direction_500mb
159 155 154 134 125 84 10 6 346 359 10 356 9 33 23 7 18 342 346 350 355 357 6 9 12 356 357 347 347 343 342 342 348 332 325 329 315 294 271 270 266 244 262
159 157 156 150 168 86 40 353 1 359 11 39 6 49 15 7 10 352 349 355 5 6 1 9 8 3 359 353 350 347 348 352 348 339 345 339 346 291 307 349 257 267 255
165 156 153 156 165 137 82 18 358 4 20 52 17 66 35 351 357 4 352 5 14 11 14 17 7 3 358 347 348 344 348 341 354 1 355 340 320 333 315 350 354 292 257
166 158 154 157 155 148 117 357 1 27 12 36 35 25 39 21 359 8 0 11 3 12 8 11 8 5 5 350 355 343 341 348 344 356 358 341 324 325 324 319 344 337 304
168 162 159 158 151 144 154 319 5 32 39 11 31 47 50 36 6 8 11 355 14 3 351 354 352 357 354 349 342 345 352 351 348 338 344 356 5 357 337 321 320 335 348
164 156 158 150 153 168 175 122 37 52 57 53 358 26 34 25 28 18 11 2 354 3 347 349 360 359 355 0 355 345 349 353 346 339 342 339 351 356 355 340 336 325 350
154 157 153 155 167 163 155 128 112 84 79 64 6 31 45 27 19 19 357 4 352 -0 350 348 348 358 2 355 359 355 350 353 351 347 343 345 338 349 343 343 344 337 349
152 156 166 171 176 161 154 168 122 105 97 23 38 31 50 46 23 13 9 2 352 353 350 351 356 2 355 352 357 356 350 354 357 356 354 353 348 345 338 336 342 343 9
159 166 170 161 155 158 156 151 141 123 110 78 43 29 41 38 26 8 6 6 3 3 349 5 355 357 1 356 359 354 357 356 1 357 356 356 355 345 332 328 327 336 332
160 154 155 157 158 159 154 146 145 137 145 80 69 40 24 38 24 16 10 5 2 359 357 0 0 7 3 357 1 5 355 358 3 356 359 360 1 359 350 329 326 312 314
152 155 161 162 165 164 156 149 152 142 141 43 65 43 21 39 17 10 5 359 357 359 358 356 359 359 358 354 354 354 351 0 358 360 5 1 6 357 1 354 308 306 289
158 168 166 163 162 164 159 162 157 143 178 35 70 22 15 31 25 13 1 354 8 3 3 3 7 10 360 349 357 2 4 359 358 2 3 4 3 5 351 353 349 267 234
166 173 168 170 164 162 163 163 155 151 163 48 52 21 16 25 32 5 11 8 12 13 4 0 359 2 354 359 359 353 352 358 360 4 7 4 2 9 3 4 356 332 209
169 174 169 166 166 167 170 169 159 150 169 135 79 41 13 23 28 11 17 7 2 4 354 0 2 1 356 357 2 355 360 9 12 7 15 6 9 11 16 16 11 20 167
174 168 167 166 169 167 171 170 162 156 181 122 56 26 34 22 0 4 0 3 352 347 350 9 353 5 359 359 358 5 7 356 8 15 20 9 14 12 25 23 25 32 65
179 170 171 172 174 172 173 176 167 164 216 5 84 9 30 0 351 347 339 341 339 348 357 -0 353 359 13 10 5 1 11 8 12 11 21 17 10 12 30 34 41 47 64
178 171 175 174 175 174 173 180 174 168 217 34 189 242 317 314 330 341 334 338 335 346 354 4 352 1 10 14 4 6 14 10 8 11 14 22 21 27 29 39 29 45 60
171 169 171 169 171 173 173 177 176 172 197 251 220 231 273 306 328 344 324 330 339 342 350 358 355 352 360 7 8 3 6 5 4 11 6 12 6 32 31 43 33 47 44
167 165 169 168 168 168 170 175 177 178 188 244 245 243 272 304 309 312 323 340 335 338 353 354 346 352 4 8 9 6 9 10 7 6 11 21 22 29 38 37 34 46 51
162 158 162 161 164 166 173 176 181 189 195 208 266 249 266 291 306 309 325 341 341 340 344 355 353 357 357 357 7 6 15 3 12 3 16 11 12 26 35 29 37 42 52
152 157 157 160 166 167 166 173 187 197 204 228 231 265 258 272 299 309 326 336 341 351 358 4 8 1 2 2 5 7 7 6 9 19 12 9 9 12 5 3 13 24 36
152 155 156 160 163 157 155 160 177 178 201 219 243 253 265 291 294 308 322 337 347 350 9 15 3 2 357 3 358 359 4 7 3 5 19 17 14 15 9 7 10 9 11
155 159 161 158 163 157 190 202 212 220 202 239 263 275 282 281 301 322 329 332 340 353 355 354 354 352 359 353 349 350 360 1 359 353 350 359 21 13 6 8 1 42 43
158 161 163 162 173 181 170 224 194 189 187 232 254 286 296 302 297 288 331 333 343 349 347 347 339 331 342 331 355 357 2 348 342 353 15 10 2 10 10 4 10 13 11
160 165 170 179 176 181 184 222 214 226 193 223 235 340 304 329 360 339 348 342 335 326 331 341 331 336 339 341 346 353 352 349 359 359 11 23 23 16 4 3 5 6 1
158 160 166 162 170 185 205 248 197 236 211 197 346 291 261 277 320 314 331 334 336 337 339 349 354 352 341 351 354 357 9 4 3 15 12 1 1 11 360 357 6 4 358
Wind_Speed_850mb
44 35 25 19 12 4 7 6 17 25 23 22 17 15 16 18 19 25 37 44 48 53 48 43 45 42 34 37 40 40 49 47 49 56 60 45 31 33 42 50 50 54 49
51 44 32 23 10 6 7 12 18 27 25 18 21 16 17 13 14 30 27 36 41 40 46 39 38 40 40 37 41 44 43 44 44 53 38 37 33 9 14 16 35 34 44
51 48 32 25 19 8 4 9 19 25 25 19 14 14 7 11 15 21 35 38 37 34 47 39 35 39 38 39 39 40 41 40 44 48 31 20 18 69 18 17 23 17 28
47 45 36 29 19 11 7 5 18 16 20 19 12 18 18 17 26 23 31 39 37 44 35 42 41 41 38 44 41 39 36 35 41 44 42 34 27 19 36 32 34 26 17
52 42 36 28 20 16 8 4 15 14 18 18 20 12 16 17 22 26 30 32 41 37 35 40 38 39 42 40 35 37 40 35 37 34 39 42 35 26 19 43 53 34 30
48 45 40 28 20 15 12 6 6 13 12 11 11 22 20 20 25 26 27 28 30 34 34 38 37 38 45 46 42 34 36 39 34 31 31 33 37 40 34 38 40 34 24
53 49 38 29 24 18 10 6 9 9 11 5 16 17 17 19 23 26 26 28 28 31 39 37 40 40 39 43 42 34 36 36 37 31 30 31 26 34 37 34 40 40 36
60 46 36 33 25 19 11 7 12 10 7 4 6 14 21 19 18 26 31 26 33 29 34 38 37 41 40 43 39 36 37 35 27 32 31 29 25 29 29 34 29 33 18
56 42 37 30 24 19 14 15 13 12 7 10 8 13 18 22 24 27 30 34 32 31 31 39 40 38 41 49 40 33 37 37 32 28 28 32 29 26 20 23 15 15 14
53 43 35 28 22 21 19 16 14 12 9 7 8 9 16 19 22 24 26 30 31 37 39 37 42 36 39 46 47 33 36 37 34 27 29 34 30 30 31 16 10 8 8
44 38 35 28 22 20 18 16 13 11 4 3 7 10 10 16 17 20 25 26 29 33 39 36 42 39 42 45 47 33 33 34 36 31 28 33 35 33 31 22 10 9 6
41 37 33 30 24 21 19 18 15 10 5 4 7 11 13 12 14 18 22 24 30 31 34 36 36 42 47 41 44 42 36 32 36 34 30 35 37 35 30 27 22 13 12
40 38 34 28 27 22 19 17 15 13 8 4 9 10 13 14 12 15 23 24 27 28 30 31 36 35 46 46 40 37 32 30 32 34 28 33 36 40 37 29 29 13 14
40 38 33 30 24 22 22 19 16 12 9 2 5 7 9 11 15 17 23 23 25 26 29 32 36 32 43 58 44 38 33 36 32 32 28 30 33 40 43 34 32 17 6
40 37 32 29 28 24 21 19 16 14 10 4 4 5 7 11 14 20 18 22 24 28 28 29 32 40 46 56 47 36 33 30 34 32 27 25 30 29 39 36 34 24 6
38 34 31 29 27 24 21 19 18 13 7 6 3 3 10 5 15 15 17 22 29 32 29 25 28 39 51 57 44 35 32 31 33 33 28 24 26 26 27 36 31 27 16
37 35 30 27 26 23 21 22 19 17 8 1 1 2 4 5 15 15 20 27 30 31 31 31 29 34 43 57 42 37 35 37 31 33 27 26 24 17 22 26 28 27 19
36 33 28 27 24 22 20 20 20 16 12 3 3 6 9 9 12 12 20 24 27 29 32 29 28 29 33 46 52 36 37 40 32 34 35 19 21 18 17 19 23 20 21
34 32 28 28 26 22 20 19 18 14 11 8 6 5 10 12 12 15 22 29 29 30 30 26 23 28 36 45 50 35 38 38 34 32 37 31 22 21 15 13 13 21 20
37 34 32 30 25 22 20 19 16 14 12 9 11 11 10 14 14 17 26 29 32 31 31 25 23 32 33 40 47 41 25 34 28 28 31 33 22 16 13 11 11 8 14
38 36 33 29 26 20 19 16 13 14 13 12 15 13 14 14 13 25 24 33 31 30 25 22 23 27 34 42 45 38 27 28 35 35 32 34 30 18 11 10 9 10 8
39 35 33 30 24 19 17 15 13 9 10 17 15 13 12 13 17 21 22 30 27 33 27 22 21 24 33 38 40 32 29 31 29 30 30 32 33 30 20 15 9 6 9
37 33 32 31 24 19 12 13 11 13 8 17 12 13 15 15 12 17 17 21 21 21 28 22 29 29 25 27 34 28 27 28 25 25 27 20 25 32 31 20 6 10 9
34 32 33 28 26 18 14 9 4 6 7 12 7 10 9 11 13 9 13 18 22 22 23 25 25 26 28 30 39 28 25 21 16 14 20 24 25 19 34 30 15 5 6
31 30 28 32 25 13 20 14 4 3 6 7 4 3 6 8 6 6 4 15 16 20 22 22 24 28 28 32 32 32 31 26 22 19 19 21 23 22 25 34 26 17 11
29 26 23 26 21 16 19 11 5 2 5 3 2 4 8 10 11 11 14 16 15 25 21 22 20 22 26 28 27 30 26 19 17 26 23 25 21 20 25 28 30 24 17
Wind_Direction_850mb
159 155 154 134 125 84 10 6 346 359 10 356 9 33 23 7 18 342 346 350 355 357 6 9 12 356 357 347 347 343 342 342 348 332 325 329 315 294 271 270 266 244 262
159 157 156 150 168 86 40 353 1 359 11 39 6 49 15 7 10 352 349 355 5 6 1 9 8 3 359 353 350 347 348 352 348 339 345 339 346 291 307 349 257 267 255
165 156 153 156 165 137 82 18 358 4 20 52 17 66 35 351 357 4 352 5 14 11 14 17 7 3 358 347 348 344 348 341 354 1 355 340 320 333 315 350 354 292 257
166 158 154 157 155 148 117 357 1 27 12 36 35 25 39 21 359 8 0 11 3 12 8 11 8 5 5 350 355 343 341 348 344 356 358 341 324 325 324 319 344 337 304
168 162 159 158 151 144 154 319 5 32 39 11 31 47 50 36 6 8 11 355 14 3 351 354 352 357 354 349 342 345 352 351 348 338 344 356 5 357 337 321 320 335 348
164 156 158 150 153 168 175 122 37 52 57 53 358 26 34 25 28 18 11 2 354 3 347 349 360 359 355 0 355 345 349 353 346 339 342 339 351 356 355 340 336 325 350
154 157 153 155 167 163 155 128 112 84 79 64 6 31 45 27 19 19 357 4 352 -0 350 348 348 358 2 355 359 355 350 353 351 347 343 345 338 349 343 343 344 337 349
152 156 166 171 176 161 154 168 122 105 97 23 38 31 50 46 23 13 9 2 352 353 350 351 356 2 355 352 357 356 350 354 357 356 354 353 348 345 338 336 342 343 9
159 166 170 161 155 158 156 151 141 123 110 78 43 29 41 38 26 8 6 6 3 3 349 5 355 357 1 356 359 354 357 356 1 357 356 356 355 345 332 328 327 336 332
160 154 155 157 158 159 154 146 145 137 145 80 69 40 24 38 24 16 10 5 2 359 357 0 0 7 3 357 1 5 355 358 3 356 359 360 1 359 350 329 326 312 314
152 155 161 162 165 164 156 149 152 142 141 43 65 43 21 39 17 10 5 359 357 359 358 356 359 359 358 354 354 354 351 0 358 360 5 1 6 357 1 354 308 306 289
158 168 166 163 162 164 159 162 157 143 178 35 70 22 15 31 25 13 1 354 8 3 3 3 7 10 360 349 357 2 4 359 358 2 3 4 3 5 351 353 349 267 234
166 173 168 170 164 162 163 163 155 151 163 48 52 21 16 25 32 5 11 8 12 13 4 0 359 2 354 359 359 353 352 358 360 4 7 4 2 9 3 4 356 332 209
169 174 169 166 166 167 170 169 159 150 169 135 79 41 13 23 28 11 17 7 2 4 354 0 2 1 356 357 2 355 360 9 12 7 15 6 9 11 16 16 11 20 167
174 168 167 166 169 167 171 170 162 156 181 122 56 26 34 22 0 4 0 3 352 347 350 9 353 5 359 359 358 5 7 356 8 15 20 9 14 12 25 23 25 32 65
179 170 171 172 174 172 173 176 167 164 216 5 84 9 30 0 351 347 339 341 339 348 357 -0 353 359 13 10 5 1 11 8 12 11 21 17 10 12 30 34 41 47 64
178 171 175 174 175 174 173 180 174 168 217 34 189 242 317 314 330 341 334 338 335 346 354 4 352 1 10 14 4 6 14 10 8 11 14 22 21 27 29 39 29 45 60
171 169 171 169 171 173 173 177 176 172 197 251 220 231 273 306 328 344 324 330 339 342 350 358 355 352 360 7 8 3 6 5 4 11 6 12 6 32 31 43 33 47 44
167 165 169 168 168 168 170 175 177 178 188 244 245 243 272 304 309 312 323 340 335 338 353 354 346 352 4 8 9 6 9 10 7 6 11 21 22 29 38 37 34 46 51
162 158 162 161 164 166 173 176 181 189 195 208 266 249 266 291 306 309 325 341 341 340 344 355 353 357 357 357 7 6 15 3 12 3 16 11 12 26 35 29 37 42 52
152 157 157 160 166 167 166 173 187 197 204 228 231 265 258 272 299 309 326 336 341 351 358 4 8 1 2 2 5 7 7 6 9 19 12 9 9 12 5 3 13 24 36
152 155 156 160 163 157 155 160 177 178 201 219 243 253 265 291 294 308 322 337 347 350 9 15 3 2 357 3 358 359 4 7 3 5 19 17 14 15 9 7 10 9 11
155 159 161 158 163 157 190 202 212 220 202 239 263 275 282 281 301 322 329 332 340 353 355 354 354 352 359 353 349 350 360 1 359 353 350 359 21 13 6 8 1 42 43
158 161 163 162 173 181 170 224 194 189 187 232 254 286 296 302 297 288 331 333 343 349 347 347 339 331 342 331 355 357 2 348 342 353 15 10 2 10 10 4 10 13 11
160 165 170 179 176 181 184 222 214 226 193 223 235 340 304 329 360 339 348 342 335 326 331 341 331 336 339 341 346 353 352 349 359 359 11 23 23 16 4 3 5 6 1
158 160 166 162 170 185 205 248 197 236 211 197 346 291 261 277 320 314 331 334 336 337 339 349 354 352 341 351 354 357 9 4 3 15 12 1 1 11 360 357 6 4 358